Miscellaneous Local Product
Issued by NWS Hastings, NE

Home | Current Version | Previous Version | Graphics & Text | Print | Product List | Glossary On
Versions: 1 2 3 4 5 6 7 8 9 10 11 12 13 14 15 16 17 18 19 20 21 22 23 24 25 26 27 28 29 30 31 32 33 34 35 36 37 38 39 40 41 42 43 44 45 46 47 48 49 50
000
AXUS43 KGID 171602
MISGRI

GID CWA HOURLY WEATHER ROUNDUP
NATIONAL WEATHER SERVICE HASTINGS NE
1100 AM CDT THU APR 17 2014

NOTE: "FAIR" INDICATES FEW OR NO CLOUDS BELOW 12,000 FEET WITH NO
SIGNIFICANT WEATHER AND/OR OBSTRUCTIONS TO VISIBILITY.

...SOUTH CENTRAL NEBRASKA...

CITY           SKY/WX    TMP DP  RH WIND       PRES   REMARKS
GRAND ISLAND   SUNNY     39  25  57 N5        30.33R
HASTINGS       MOSUNNY   38  26  62 VRB5      30.32R WCI  34
KEARNEY        PTSUNNY   34  25  69 NW5       30.32S WCI  30
ORD            SUNNY     37  23  56 CALM      30.31S
YORK           MOSUNNY   37  27  65 N9G18     30.33R WCI  31
AURORA         MOSUNNY   38  26  62 N9        30.31S WCI  31
LEXINGTON      CLOUDY    34  27  75 E5        30.31S WCI  29
HOLDREGE       CLOUDY    33  26  74 N5        30.31R WCI  28
HEBRON         PTSUNNY   38  26  62 NE7       30.34R WCI  32

...NEBRASKA PANHANDLE...

CITY           SKY/WX    TMP DP  RH WIND       PRES   REMARKS
CHADRON        CLOUDY    39  32  76 SW14      30.16S WCI  31
ALLIANCE       CLOUDY    36  29  75 S16       30.16R WCI  26
SCOTTSBLUFF    CLOUDY    38  33  82 S10       30.15S WCI  31
SIDNEY         FOG       34  32  92 SE13      30.18R VSB 3/4 WCI  25

...WESTERN AND NORTH CENTRAL NEBRASKA...

CITY           SKY/WX    TMP DP  RH WIND       PRES   REMARKS
VALENTINE      PTSUNNY   35  22  58 SE7       30.26S WCI  29
AINSWORTH      PTSUNNY   37  24  58 SE7       30.27R WCI  31
ONEILL         SUNNY     35  21  56 NE5       30.32S WCI  31
BROKEN BOW     SUNNY     37  23  56 E7        30.29S WCI  32
IMPERIAL       CLOUDY    32  27  81 SE10      30.26R WCI  24
NORTH PLATTE   MOSUNNY   34  24  67 SE5       30.29R WCI  30
MCCOOK         CLOUDY    34  26  72 NE6       30.32R WCI  29

...EASTERN NEBRASKA...

CITY           SKY/WX    TMP DP  RH WIND       PRES   REMARKS
NORFOLK        SUNNY     38  23  55 N13G18    30.31S WCI  30
SO SIOUX CITY  SUNNY     39  25  57 NW6       30.33S WCI  35
TEKAMAH        SUNNY     40  25  55 N12       30.34R WCI  33
COLUMBUS       SUNNY     39  25  56 N9G16     30.33R WCI  33
ALBION         SUNNY     36  23  59 N8        30.31S WCI  30
OMAHA EPPLEY   MOSUNNY   38  25  59 N7        30.35R WCI  33
OFFUTT AFB     PTSUNNY   38  26  62 VRB3      30.35S
MILLARD        PTSUNNY   36  25  63 CALM      30.35R
LINCOLN        MOSUNNY   40  25  55 VRB5      30.35S
NEBRASKA CITY  CLOUDY    35  27  71 N9        30.34S WCI  28
BEATRICE       PTSUNNY   37  26  64 N9        30.33S WCI  30
FALLS CITY     PTSUNNY   39  27  62 N12       30.32R WCI  32

...NORTHERN KANSAS...

CITY           SKY/WX    TMP DP  RH WIND       PRES   REMARKS
GOODLAND       CLOUDY    34  30  85 SE7       30.27R WCI  28
HILL CITY      PTSUNNY   38  26  62 N5        30.33R WCI  34
PHILLIPSBURG   PTSUNNY   36  27  69 CALM      30.34S
SMITH CENTER   CLOUDY    36  27  69 NE6       30.35R WCI  31
BELOIT         SUNNY     39  27  60 NE9       30.33S WCI  33
HAYS           CLOUDY    37  27  65 NE8       30.33R WCI  31
RUSSELL        CLOUDY    39  26  59 N10       30.31R WCI  32
CONCORDIA      PTSUNNY   39  27  62 NE10      30.33R WCI  32
SALINA         CLOUDY    41  27  57 N10       30.33S
TOPEKA         CLOUDY    41  30  65 N12       30.33R



USA.gov is the U.S. government's official web portal to all federal, state and local government web resources and services.